Stündliche Wetter Abanosimovka

Heute, 2 März, Dienstag

Zeit Temperatur Niederschläge Wind Luftdruck Luftfeuchtigkeit
00:00 -8°C° 0 mm 6 m/S 753 mmHg 94%
01:00 -6°C° 0 mm 6 m/S 752 mmHg 93%
02:00 -5°C° 0 mm 6 m/S 751 mmHg 92%
03:00 -6°C° 0 mm 7 m/S 750 mmHg 90%
04:00 -5°C° 0 mm 6 m/S 749 mmHg 91%
05:00 -5°C° 0 mm 6 m/S 748 mmHg 92%
06:00 -4°C° 0 mm 6 m/S 748 mmHg 93%
07:00 -4°C° 0 mm 6 m/S 747 mmHg 93%
08:00 -3°C° 0 mm 7 m/S 747 mmHg 93%
09:00 -2°C° 0 mm 7 m/S 746 mmHg 92%
10:00 -2°C° 0.1 mm 7 m/S 745 mmHg 94%
11:00 -2°C° 0.1 mm 6 m/S 745 mmHg 96%
12:00 -2°C° 0.1 mm 6 m/S 744 mmHg 98%
13:00 -2°C° 0.6 mm 6 m/S 744 mmHg 98%
14:00 -2°C° 0.6 mm 6 m/S 743 mmHg 98%
15:00 -3°C° 0.6 mm 7 m/S 743 mmHg 98%
16:00 -3°C° 0.6 mm 6 m/S 743 mmHg 98%
17:00 -2°C° 0.6 mm 5 m/S 742 mmHg 98%
18:00 -2°C° 0.6 mm 4 m/S 742 mmHg 98%
19:00 -2°C° 0.3 mm 4 m/S 742 mmHg 98%
20:00 -2°C° 0.3 mm 4 m/S 742 mmHg 98%
21:00 -2°C° 0.3 mm 4 m/S 742 mmHg 97%
22:00 -2°C° 0.2 mm 4 m/S 742 mmHg 96%
23:00 -4°C° 0.2 mm 5 m/S 742 mmHg 95%

Morgen, 3 März, Mittwoch

Zeit Temperatur Niederschläge Wind Luftdruck Luftfeuchtigkeit
00:00 -4°C° 0.2 mm 5 m/S 742 mmHg 93%
01:00 -5°C° 0 mm 5 m/S 743 mmHg 93%
02:00 -5°C° 0 mm 4 m/S 743 mmHg 94%
03:00 -7°C° 0 mm 4 m/S 744 mmHg 94%
04:00 -7°C° 0 mm 5 m/S 744 mmHg 93%
05:00 -7°C° 0 mm 5 m/S 744 mmHg 93%
06:00 -6°C° 0 mm 6 m/S 745 mmHg 92%
07:00 -8°C° 0 mm 6 m/S 745 mmHg 91%
08:00 -8°C° 0 mm 6 m/S 746 mmHg 90%
09:00 -9°C° 0 mm 6 m/S 746 mmHg 88%
10:00 -9°C° 0 mm 6 m/S 747 mmHg 88%
11:00 -8°C° 0 mm 6 m/S 747 mmHg 87%
12:00 -8°C° 0 mm 6 m/S 747 mmHg 87%
13:00 -8°C° 0 mm 6 m/S 747 mmHg 85%
14:00 -6°C° 0 mm 6 m/S 748 mmHg 84%
15:00 -6°C° 0 mm 6 m/S 748 mmHg 83%
16:00 -7°C° 0 mm 5 m/S 748 mmHg 85%
17:00 -8°C° 0 mm 4 m/S 748 mmHg 87%
18:00 -8°C° 0 mm 3 m/S 748 mmHg 89%
19:00 -8°C° 0 mm 4 m/S 748 mmHg 90%
20:00 -8°C° 0 mm 4 m/S 748 mmHg 91%
21:00 -8°C° 0 mm 5 m/S 748 mmHg 92%
22:00 -7°C° 0 mm 5 m/S 748 mmHg 92%
23:00 -6°C° 0 mm 5 m/S 748 mmHg 93%

übermorgen, 4 März, Donnerstag

Zeit Temperatur Niederschläge Wind Luftdruck Luftfeuchtigkeit
00:00 -6°C° 0 mm 5 m/S 747 mmHg 93%
01:00 -6°C° 0 mm 5 m/S 747 mmHg 93%
02:00 -6°C° 0 mm 5 m/S 747 mmHg 93%
03:00 -6°C° 0 mm 5 m/S 746 mmHg 93%
04:00 -6°C° 0 mm 5 m/S 746 mmHg 92%
05:00 -6°C° 0 mm 5 m/S 745 mmHg 90%
06:00 -5°C° 0 mm 6 m/S 745 mmHg 89%
07:00 -5°C° 0 mm 6 m/S 744 mmHg 89%
08:00 -6°C° 0 mm 7 m/S 744 mmHg 90%
09:00 -6°C° 0 mm 7 m/S 744 mmHg 91%
10:00 -5°C° 0 mm 8 m/S 743 mmHg 89%
11:00 -4°C° 0 mm 8 m/S 742 mmHg 87%
12:00 -2°C° 0 mm 8 m/S 742 mmHg 85%
13:00 -2°C° 0 mm 8 m/S 741 mmHg 83%
14:00 -2°C° 0 mm 8 m/S 741 mmHg 82%
15:00 -2°C° 0 mm 8 m/S 741 mmHg 81%
16:00 -2°C° 0 mm 7 m/S 740 mmHg 81%
17:00 -2°C° 0 mm 7 m/S 739 mmHg 82%
18:00 -2°C° 0 mm 6 m/S 739 mmHg 82%
19:00 -2°C° 0 mm 6 m/S 739 mmHg 84%
20:00 -2°C° 0 mm 6 m/S 738 mmHg 85%
21:00 -2°C° 0 mm 6 m/S 738 mmHg 86%
22:00 -2°C° 0 mm 6 m/S 738 mmHg 90%
23:00 -2°C° 0 mm 6 m/S 738 mmHg 93%

5 März, Freitag

Zeit Temperatur Niederschläge Wind Luftdruck Luftfeuchtigkeit
00:00 -2°C° 0 mm 6 m/S 737 mmHg 97%
01:00 -2°C° 0.3 mm 6 m/S 738 mmHg 97%
02:00 -1°C° 0.3 mm 5 m/S 738 mmHg 97%
03:00 -1°C° 0.3 mm 5 m/S 738 mmHg 97%
04:00 -3°C° 0.2 mm 4 m/S 739 mmHg 96%
05:00 -4°C° 0.2 mm 4 m/S 739 mmHg 96%
06:00 -5°C° 0.2 mm 3 m/S 740 mmHg 95%
07:00 -5°C° 0 mm 3 m/S 740 mmHg 94%
08:00 -5°C° 0 mm 3 m/S 741 mmHg 92%
09:00 -6°C° 0 mm 3 m/S 742 mmHg 91%
10:00 -5°C° 0 mm 2 m/S 742 mmHg 89%
11:00 -4°C° 0 mm 2 m/S 743 mmHg 87%
12:00 -4°C° 0 mm 2 m/S 743 mmHg 86%
13:00 -4°C° 0 mm 2 m/S 744 mmHg 86%
14:00 -4°C° 0 mm 2 m/S 744 mmHg 85%
15:00 -4°C° 0 mm 2 m/S 744 mmHg 85%
16:00 -5°C° 0 mm 2 m/S 745 mmHg 87%
17:00 -3°C° 0 mm 1 m/S 745 mmHg 89%
18:00 -4°C° 0 mm 1 m/S 745 mmHg 91%
19:00 -6°C° 0 mm 1 m/S 745 mmHg 91%
20:00 -6°C° 0 mm 1 m/S 746 mmHg 90%
21:00 -7°C° 0 mm 1 m/S 746 mmHg 90%
22:00 -7°C° 0 mm 1 m/S 746 mmHg 90%
23:00 -7°C° 0 mm 1 m/S 746 mmHg 90%

6 März, Samstag

Zeit Temperatur Niederschläge Wind Luftdruck Luftfeuchtigkeit
00:00 -8°C° 0 mm 1 m/S 746 mmHg 90%
01:00 -8°C° 0 mm 1 m/S 746 mmHg 90%
02:00 -9°C° 0 mm 2 m/S 746 mmHg 90%
03:00 -9°C° 0 mm 2 m/S 746 mmHg 90%
04:00 -9°C° 0 mm 2 m/S 746 mmHg 91%
05:00 -9°C° 0 mm 2 m/S 746 mmHg 92%
06:00 -9°C° 0 mm 2 m/S 746 mmHg 93%
07:00 -10°C° 0 mm 3 m/S 747 mmHg 92%
08:00 -10°C° 0 mm 3 m/S 747 mmHg 91%
09:00 -10°C° 0 mm 3 m/S 747 mmHg 90%
10:00 -9°C° 0 mm 3 m/S 747 mmHg 88%
11:00 -9°C° 0 mm 3 m/S 747 mmHg 87%
12:00 -8°C° 0 mm 3 m/S 747 mmHg 85%
13:00 -8°C° 0 mm 3 m/S 748 mmHg 84%
14:00 -7°C° 0 mm 3 m/S 748 mmHg 84%
15:00 -7°C° 0 mm 3 m/S 748 mmHg 83%
16:00 -8°C° 0 mm 3 m/S 748 mmHg 85%
17:00 -9°C° 0 mm 3 m/S 747 mmHg 87%
18:00 -9°C° 0 mm 2 m/S 747 mmHg 89%
19:00 -10°C° 0 mm 2 m/S 748 mmHg 89%
20:00 -10°C° 0 mm 2 m/S 748 mmHg 90%
21:00 -10°C° 0 mm 2 m/S 748 mmHg 90%
22:00 -12°C° 0 mm 2 m/S 748 mmHg 91%
23:00 -12°C° 0 mm 2 m/S 748 mmHg 92%

7 März, Sonntag

Zeit Temperatur Niederschläge Wind Luftdruck Luftfeuchtigkeit
00:00 -13°C° 0 mm 3 m/S 748 mmHg 92%
01:00 -12°C° 0 mm 2 m/S 748 mmHg 92%
02:00 -12°C° 0 mm 2 m/S 747 mmHg 93%
03:00 -13°C° 0 mm 2 m/S 747 mmHg 93%
04:00 -13°C° 0 mm 3 m/S 747 mmHg 92%
05:00 -13°C° 0 mm 3 m/S 746 mmHg 92%
06:00 -14°C° 0 mm 4 m/S 746 mmHg 92%
07:00 -13°C° 0 mm 5 m/S 745 mmHg 88%
08:00 -12°C° 0 mm 6 m/S 744 mmHg 85%
09:00 -12°C° 0 mm 7 m/S 743 mmHg 81%
10:00 -11°C° 0 mm 8 m/S 743 mmHg 82%
11:00 -10°C° 0 mm 9 m/S 742 mmHg 83%
12:00 -9°C° 0 mm 9 m/S 741 mmHg 84%
13:00 -9°C° 0.2 mm 10 m/S 740 mmHg 85%
14:00 -9°C° 0.2 mm 10 m/S 739 mmHg 85%
15:00 -8°C° 0.2 mm 10 m/S 739 mmHg 86%
16:00 -8°C° 0.2 mm 10 m/S 738 mmHg 84%
17:00 -8°C° 0.2 mm 9 m/S 737 mmHg 82%
18:00 -6°C° 0.2 mm 9 m/S 737 mmHg 80%
19:00 -6°C° 0 mm 9 m/S 736 mmHg 81%
20:00 -7°C° 0 mm 10 m/S 736 mmHg 83%
21:00 -7°C° 0 mm 10 m/S 735 mmHg 84%
22:00 -7°C° 0.3 mm 10 m/S 735 mmHg 87%
23:00 -7°C° 0.3 mm 10 m/S 734 mmHg 90%
Mehr zeigen

Wir brauchen deine Erlaubnis

Meteoprog und unser Service Anbieter werden persönliche Daten aufbewahren, so wie Cookies, Geräte Bezeichnung oder ähnliche Technologien von deinem Gerät und Prozess, so wie Persönliche Daten Inhalte und Werbungen, genauso wie social Media und den Verkehr zu analysieren.

  • Aufbewahrung und/oder Zugang zu deiner Geräte Informationen.

    Cookies, Geräte Bezeichnung oder andere Informationen, können aufbewahrt oder Zugang zu deinem Gerät erhalten, für den Grund, der oben angegeben wird.

  • Personalisierte Werbung und Inhalte, Messungen, Einblick in das Publikum und Produkt Entwicklung.

    Werbungen und Inhalte können personalisiert werden, basierend auf ein Profil. Mehr Daten können besser personalisierte Werbungen und Inhalte hinzufügen. Werbung und Inhalte können gezeigt und gemessen werden. Einblicke über das Publikum, welche die Werbung gesehen haben und den Inhalt, können abgeleitet werden. So wie Daten können genutzt werden, um es zu verbessern oder die Benutzer Erfahrung zu verbessern das System und die Software.

Wenn du “Ich stimme zu” klickst, erlaubst du uns, die Cookies zu benutzen die Geräte Bezeichnung, den Web oder ähnliche Technologien zu benutzen. Deine Settings, können in deinem Gerät bei deinem Browser geändert werden.

Für den bestimmten Zweck, berechtigten Interessen beruhen darauf, mehr als auf den Inhalt. Du kannst mehr darüber in unseren Privaten und Cookie Politik lesen.